DW0307 Weather Reports


time (UTC)temp
F
wind
direction
speed
knots
gust
knots
rain 1hr
in
rain 24hr
in
rain mn
in
humidity
%
barometer
mb
20260902091552 68 266 0.9 6.1 0.00 0.00 0.00 51 1022.8
20260902090052 67 0 0.9 3.5 0.00 0.00 0.00 53 1023.0
20260902084554 68 331 1.7 3.5 0.00 0.00 0.00 54 1023.0
20260902083055 66 313 2.6 6.1 0.00 0.00 0.00 61 1022.9
20260902081555 65 13 0.9 2.6 0.00 0.00 0.00 62 1023.1
20260902080050 64 316 1.7 3.5 0.00 0.00 0.00 63 1023.0
20260902074558 64 44 1.7 3.5 0.00 0.00 0.00 62 1023.1
20260902073047 64 0 0.0 2.6 0.00 0.00 0.00 62 1023.0
20260902071552 64 0 0.0 2.6 0.00 0.00 0.00 65 1022.9
20260902070055 63 0 0.0 3.5 0.00 0.00 0.00 66 1022.9
20260902064557 62 86 0.0 3.5 0.00 0.00 0.00 68 1022.6
20260902063107 60 69 1.7 2.6 0.00 0.00 0.00 71 1022.7
20260902061609 58 281 0.9 2.6 0.00 0.00 0.00 76 1022.6
20260902060052 56 277 0.9 2.6 0.00 0.00 0.00 84 1022.8
20260902054553 52 0 0.0 1.7 0.00 0.00 0.00 88 1022.8
20260902053105 49 284 1.7 2.6 0.00 0.00 0.00 88 1022.8
20260902051606 48 0 0.9 2.6 0.00 0.00 0.00 89 1022.7
20260902050052 47 0 0.0 1.7 0.00 0.00 0.00 90 1022.7
20260902044606 44 0 0.0 0.9 0.00 0.00 0.00 90 1022.5
20260902043103 42 284 0.9 1.7 0.00 0.00 0.00 89 1022.4
20260902041555 41 0 0.0 0.0 0.00 0.00 0.00 89 1022.5
20260902040054 42 0 0.0 1.7 0.00 0.00 0.00 88 1022.4
20260902034603 41 0 0.0 0.9 0.00 0.00 0.00 88 1022.6
20260902033056 42 0 0.0 0.0 0.00 0.00 0.00 89 1022.5
20260902031600 42 0 0.0 1.7 0.00 0.00 0.00 88 1022.6
20260902030056 42 284 0.9 2.6 0.00 0.00 0.00 88 1022.4
20260902024557 42 284 0.9 2.6 0.00 0.00 0.00 88 1022.4
20260902023048 42 0 0.0 2.6 0.00 0.00 0.00 88 1022.5
20260902021552 41 294 1.7 3.5 0.00 0.00 0.00 87 1022.4
20260902020053 42 0 0.0 2.6 0.00 0.00 0.00 87 1022.4
20260902014547 42 296 0.0 1.7 0.00 0.00 0.00 87 1022.5
20260902013107 42 295 0.9 1.7 0.00 0.00 0.00 87 1022.5
20260902011553 43 296 0.9 3.5 0.00 0.00 0.00 87 1022.5
20260902010049 42 286 2.6 5.2 0.00 0.00 0.00 86 1022.6
20260902004559 44 303 0.0 1.7 0.00 0.00 0.00 86 1022.4
20260902003101 45 0 0.0 0.0 0.00 0.00 0.00 86 1022.5
20260902001554 45 303 0.0 1.7 0.00 0.00 0.00 86 1022.3
20260902000104 45 302 0.0 1.7 0.00 0.00 0.00 86 1022.2
20260901234607 44 302 0.9 1.7 0.00 0.00 0.00 85 1022.2
20260901233056 44 303 0.0 2.6 0.00 0.00 0.00 85 1022.0
20260901231604 45 303 1.7 2.6 0.00 0.00 0.00 84 1022.0
20260901230103 45 304 1.7 3.5 0.00 0.00 0.00 84 1022.0
20260901224549 46 304 0.9 2.6 0.00 0.00 0.00 83 1022.0
20260901223054 47 304 0.9 3.5 0.00 0.00 0.00 82 1021.9
20260901221606 47 304 0.9 4.3 0.00 0.00 0.00 81 1022.0
20260901220051 48 238 0.9 3.5 0.00 0.00 0.00 80 1022.0
20260901214546 50 184 0.9 2.6 0.00 0.00 0.00 78 1021.9
20260901213056 51 0 0.0 2.6 0.00 0.00 0.00 78 1021.9
20260901211550 53 182 0.9 4.3 0.00 0.00 0.00 75 1021.7
20260901210048 53 195 1.7 3.5 0.00 0.00 0.00 75 1021.6
20260901204554 55 259 1.7 5.2 0.00 0.00 0.00 72 1021.5
20260901203057 56 125 5.2 7.8 0.00 0.00 0.00 72 1021.4
20260901201550 56 0 0.9 3.5 0.00 0.00 0.00 72 1021.4
20260901200047 55 15 2.6 7.0 0.00 0.00 0.00 72 1021.4
20260901194603 58 171 0.9 4.3 0.00 0.00 0.00 69 1021.4
20260901193054 59 0 0.9 3.5 0.00 0.00 0.00 67 1021.4
20260901191550 60 0 2.6 7.0 0.00 0.00 0.00 65 1021.5
20260901190048 60 260 0.0 4.3 0.00 0.00 0.00 64 1021.3
20260901184603 62 0 2.6 7.0 0.00 0.00 0.00 60 1020.9
20260901183115 63 115 5.2 9.6 0.00 0.00 0.00 58 1020.7
20260901181552 65 103 5.2 17.4 0.00 0.00 0.00 54 1020.4
20260901180051 66 116 7.8 12.2 0.00 0.00 0.00 55 1020.3
20260901174556 66 88 3.5 7.8 0.00 0.00 0.00 56 1020.1
20260901173139 66 78 2.6 7.8 0.00 0.00 0.00 56 1019.9
20260901171600 67 41 2.6 13.0 0.00 0.00 0.00 55 1019.7
20260901170057 67 275 8.7 13.9 0.00 0.00 0.00 55 1019.5
20260901164559 68 233 12.2 16.5 0.00 0.00 0.00 51 1019.2
20260901163111 70 207 13.0 18.2 0.00 0.00 0.00 49 1019.3
20260901161602 70 226 8.7 13.9 0.00 0.00 0.00 50 1019.2
20260901160056 71 250 8.7 16.5 0.00 0.00 0.00 47 1019.3
20260901154549 73 225 11.3 16.5 0.00 0.00 0.00 45 1019.2
20260901153059 73 234 10.4 17.4 0.00 0.00 0.00 47 1019.1
20260901151559 73 253 13.0 19.1 0.00 0.00 0.00 47 1019.1
20260901144600 74 262 13.9 18.2 0.00 0.00 0.00 45 1018.9
20260901143108 75 264 12.2 16.5 0.00 0.00 0.00 44 1018.8
20260901141614 75 265 13.9 19.1 0.00 0.00 0.00 44 1018.8
20260901140057 75 265 12.2 17.4 0.00 0.00 0.00 43 1018.8
20260901134552 75 252 13.0 21.7 0.00 0.00 0.00 44 1018.9
20260901133050 75 246 13.9 19.1 0.00 0.00 0.00 44 1019.1
20260901131558 76 262 13.0 20.0 0.00 0.00 0.00 44 1019.1
20260901130057 76 243 13.0 20.0 0.00 0.00 0.00 44 1019.1
20260901124550 76 242 13.0 19.1 0.00 0.00 0.00 43 1019.2
20260901123101 76 252 13.0 20.9 0.00 0.00 0.00 42 1019.2
20260901121605 76 243 12.2 18.2 0.00 0.00 0.00 43 1019.2
20260901120106 75 258 13.9 20.9 0.00 0.00 0.00 42 1019.3
20260901114552 75 242 13.0 18.2 0.00 0.00 0.00 45 1019.5
20260901113051 76 242 13.9 21.7 0.00 0.00 0.00 45 1019.4
20260901111604 75 250 13.9 20.9 0.00 0.00 0.00 45 1019.5
20260901110058 75 259 15.6 21.7 0.00 0.00 0.00 44 1019.3
20260901104554 76 235 14.8 23.5 0.00 0.00 0.00 44 1019.5
20260901103056 75 257 14.8 20.9 0.00 0.00 0.00 44 1019.6
20260901101556 75 245 13.9 22.6 0.00 0.00 0.00 45 1019.5
20260901094549 74 250 15.6 24.3 0.00 0.00 0.00 47 1019.3
20260901093057 73 250 15.6 24.3 0.00 0.00 0.00 48 1019.2